Location: Waco, TX
(31.5481°N, 97.1672°W)
Time: 23:04:43
(UTC-06:00)

ISS - Pass Details

Date: 16 November 2017
Orbit: 402 x 407 km, 51.6° (Epoch: 19 November)

Event Time Altitude Azimuth Distance (km) Brightness Sun altitude
Exits shadow 06:21:39 - 323° (NW) 1,720 -1.1 -8.1°
Reaches altitude 10° 06:22:19 10° 326° (NW) 1,451 -1.5 -7.9°
Maximum altitude 06:25:30 49° 43° (NE) 523 -3.1 -7.3°
Drops below altitude 10° 06:28:39 10° 120° (ESE) 1,444 0.6 -6.7°
Sets 06:30:45 0° 125° (SE) 2,300 1.8 -6.2°
